| time (UTC) | temp F | wind direction | speed MPH | gust MPH | rain 1hr in | rain 24hr in | rain mn in | humidity % | barometer mb |
| 20260905204803 | 56 | 292 | 5.0 | 14.0 | 0.00 | 0.11 | 0.06 | 86 | 1019.5 |
| 20260905204305 | 56 | 253 | 8.0 | 17.0 | 0.00 | 0.12 | 0.06 | 86 | 1019.5 |
| 20260905203804 | 56 | 277 | 11.0 | 17.0 | 0.00 | 0.13 | 0.06 | 86 | 1019.5 |
| 20260905203303 | 56 | 279 | 8.0 | 12.0 | 0.00 | 0.14 | 0.06 | 86 | 1019.6 |
| 20260905202804 | 56 | 227 | 8.0 | 12.0 | 0.00 | 0.14 | 0.06 | 86 | 1019.4 |
| 20260905202552 | 56 | 263 | 6.0 | 10.0 | 0.00 | 0.14 | 0.06 | 86 | 1019.4 |
| 20260905201804 | 56 | 263 | 7.0 | 11.0 | 0.00 | 0.15 | 0.06 | 86 | 1019.4 |
| 20260905201305 | 56 | 252 | 6.0 | 11.0 | 0.00 | 0.15 | 0.06 | 86 | 1019.3 |
| 20260905200805 | 56 | 244 | 4.0 | 11.0 | 0.00 | 0.16 | 0.06 | 86 | 1019.3 |
| 20260905200553 | 56 | 246 | 6.0 | 11.0 | 0.00 | 0.16 | 0.06 | 85 | 1019.3 |
| 20260905195802 | 56 | 252 | 6.0 | 11.0 | 0.00 | 0.17 | 0.06 | 85 | 1019.1 |
| 20260905195307 | 56 | 273 | 8.0 | 11.0 | 0.00 | 0.18 | 0.06 | 86 | 1019.1 |
| 20260905194802 | 56 | 268 | 8.0 | 11.0 | 0.00 | 0.19 | 0.06 | 86 | 1019.1 |
| 20260905194303 | 57 | 252 | 4.0 | 10.0 | 0.00 | 0.20 | 0.06 | 86 | 1019.0 |
| 20260905193801 | 57 | 259 | 6.0 | 10.0 | 0.00 | 0.20 | 0.06 | 85 | 1018.9 |
| 20260905193307 | 57 | 292 | 7.0 | 11.0 | 0.00 | 0.20 | 0.06 | 86 | 1018.9 |
| 20260905192804 | 57 | 275 | 5.0 | 11.0 | 0.00 | 0.20 | 0.06 | 86 | 1018.9 |
| 20260905192556 | 57 | 237 | 6.0 | 13.0 | 0.00 | 0.21 | 0.06 | 85 | 1018.8 |
| 20260905191802 | 57 | 258 | 9.0 | 13.0 | 0.00 | 0.21 | 0.06 | 85 | 1018.7 |
| 20260905191304 | 57 | 270 | 7.0 | 11.0 | 0.01 | 0.21 | 0.06 | 86 | 1018.7 |
| 20260905190805 | 57 | 242 | 6.0 | 11.0 | 0.01 | 0.21 | 0.06 | 85 | 1018.7 |
| 20260905190307 | 57 | 284 | 6.0 | 10.0 | 0.01 | 0.22 | 0.06 | 85 | 1018.7 |
| 20260905185803 | 57 | 246 | 6.0 | 10.0 | 0.01 | 0.21 | 0.06 | 85 | 1018.6 |
| 20260905185551 | 57 | 237 | 5.0 | 9.0 | 0.01 | 0.21 | 0.06 | 85 | 1018.6 |
| 20260905185049 | 57 | 258 | 4.0 | 10.0 | 0.01 | 0.21 | 0.06 | 85 | 1018.6 |
| 20260905184305 | 57 | 262 | 6.0 | 14.0 | 0.01 | 0.21 | 0.06 | 85 | 1018.6 |
| 20260905184054 | 57 | 239 | 6.0 | 14.0 | 0.01 | 0.21 | 0.06 | 85 | 1018.7 |
| 20260905183306 | 57 | 260 | 7.0 | 15.0 | 0.01 | 0.21 | 0.06 | 84 | 1018.6 |
| 20260905182805 | 57 | 272 | 13.0 | 15.0 | 0.01 | 0.21 | 0.06 | 84 | 1018.5 |
| 20260905182306 | 57 | 268 | 8.0 | 14.0 | 0.01 | 0.21 | 0.06 | 83 | 1018.7 |
| 20260905181802 | 57 | 292 | 10.0 | 18.0 | 0.01 | 0.21 | 0.05 | 83 | 1018.7 |
| 20260905181337 | 58 | 299 | 6.0 | 10.0 | 0.00 | 0.21 | 0.05 | 85 | 1018.8 |
| 20260905181324 | 58 | 294 | 13.0 | 18.0 | 0.00 | 0.21 | 0.05 | 84 | 1018.7 |
| 20260905180305 | 58 | 293 | 6.0 | 16.0 | 0.00 | 0.21 | 0.05 | 85 | 1018.7 |
| 20260905180043 | 58 | 287 | 2.0 | 16.0 | 0.00 | 0.21 | 0.05 | 85 | 1018.5 |
| 20260905175306 | 58 | 313 | 4.0 | 6.0 | 0.00 | 0.21 | 0.05 | 85 | 1018.6 |
| 20260905175050 | 58 | 283 | 3.0 | 6.0 | 0.00 | 0.21 | 0.05 | 84 | 1018.3 |
| 20260905174306 | 58 | 314 | 2.0 | 7.0 | 0.00 | 0.21 | 0.05 | 84 | 1018.0 |
| 20260905174051 | 58 | 283 | 4.0 | 7.0 | 0.00 | 0.21 | 0.05 | 83 | 1017.9 |
| 20260905173305 | 58 | 279 | 3.0 | 7.0 | 0.00 | 0.21 | 0.05 | 83 | 1017.7 |
| 20260905172805 | 59 | 284 | 4.0 | 7.0 | 0.03 | 0.21 | 0.05 | 83 | 1017.6 |
| 20260905172305 | 59 | 283 | 3.0 | 6.0 | 0.05 | 0.21 | 0.05 | 83 | 1017.6 |
| 20260905171806 | 59 | 273 | 2.0 | 7.0 | 0.05 | 0.21 | 0.05 | 82 | 1017.6 |
| 20260905171307 | 59 | 258 | 4.0 | 9.0 | 0.05 | 0.21 | 0.05 | 82 | 1017.6 |
| 20260905170805 | 59 | 300 | 4.0 | 9.0 | 0.05 | 0.21 | 0.05 | 81 | 1017.6 |
| 20260905170245 | 60 | 270 | 6.0 | 9.0 | 0.05 | 0.21 | 0.05 | 81 | 1017.7 |
| 20260905170018 | 60 | 317 | 6.0 | 10.0 | 0.05 | 0.17 | 0.05 | 79 | 1017.6 |
| 20260905165246 | 61 | 299 | 7.0 | 10.0 | 0.05 | 0.17 | 0.05 | 78 | 1017.4 |
| 20260905164739 | 61 | 354 | 4.0 | 10.0 | 0.00 | 0.17 | 0.05 | 78 | 1017.4 |
| 20260905164242 | 62 | 311 | 3.0 | 10.0 | 0.00 | 0.17 | 0.05 | 77 | 1017.2 |
| 20260905164022 | 62 | 266 | 5.0 | 10.0 | 0.00 | 0.17 | 0.05 | 75 | 1016.9 |
| 20260905163241 | 64 | 306 | 2.0 | 13.0 | 0.00 | 0.17 | 0.05 | 75 | 1016.8 |
| 20260905162740 | 65 | 269 | 6.0 | 21.0 | 0.00 | 0.17 | 0.02 | 68 | 1016.7 |
| 20260905162250 | 67 | 334 | 11.0 | 21.0 | 0.00 | 0.17 | 0.00 | 64 | 1016.8 |
| 20260905162023 | 67 | 252 | 7.0 | 18.0 | 0.00 | 0.17 | 0.00 | 63 | 1016.2 |
| 20260905161236 | 67 | 276 | 5.0 | 17.0 | 0.00 | 0.17 | 0.00 | 63 | 1015.6 |
| 20260905160735 | 67 | 313 | 9.0 | 18.0 | 0.00 | 0.17 | 0.00 | 63 | 1015.5 |
| 20260905160236 | 67 | 273 | 15.0 | 18.0 | 0.00 | 0.17 | 0.00 | 63 | 1015.5 |
| 20260905155811 | 0 | 272 | 11.0 | 6.0 | 0.00 | 0.17 | 0.00 | 1015.4 | |
| 20260905155753 | 67 | 258 | 8.0 | 17.0 | 0.00 | 0.17 | 0.00 | 63 | 1015.5 |
| 20260905154835 | 68 | 276 | 12.0 | 22.0 | 0.00 | 0.17 | 0.00 | 63 | 1015.4 |
| 20260905154334 | 68 | 276 | 12.0 | 22.0 | 0.00 | 0.17 | 0.00 | 63 | 1015.4 |
| 20260905153834 | 68 | 293 | 6.0 | 19.0 | 0.00 | 0.17 | 0.00 | 63 | 1015.4 |
| 20260905153623 | 67 | 275 | 13.0 | 19.0 | 0.00 | 0.17 | 0.00 | 63 | 1015.4 |
| 20260905152836 | 67 | 262 | 11.0 | 29.0 | 0.00 | 0.17 | 0.00 | 63 | 1015.4 |
| 20260905152332 | 67 | 211 | 14.0 | 29.0 | 0.00 | 0.17 | 0.00 | 63 | 1015.4 |
| 20260905151833 | 67 | 272 | 13.0 | 22.0 | 0.00 | 0.17 | 0.00 | 63 | 1015.3 |
| 20260905151332 | 67 | 260 | 8.0 | 22.0 | 0.00 | 0.17 | 0.00 | 63 | 1015.4 |
| 20260905150833 | 67 | 268 | 14.0 | 23.0 | 0.00 | 0.17 | 0.00 | 62 | 1015.5 |
| 20260905150331 | 68 | 252 | 12.0 | 24.0 | 0.00 | 0.17 | 0.00 | 63 | 1015.3 |
| 20260905145835 | 68 | 275 | 13.0 | 24.0 | 0.00 | 0.17 | 0.00 | 61 | 1015.3 |
| 20260905145333 | 68 | 215 | 12.0 | 23.0 | 0.00 | 0.17 | 0.00 | 62 | 1015.3 |
| 20260905144834 | 69 | 242 | 13.0 | 18.0 | 0.00 | 0.17 | 0.00 | 62 | 1015.3 |
| 20260905144333 | 69 | 265 | 12.0 | 29.0 | 0.00 | 0.17 | 0.00 | 61 | 1015.2 |
| 20260905143833 | 69 | 279 | 14.0 | 29.0 | 0.00 | 0.17 | 0.00 | 61 | 1015.1 |
| 20260905143332 | 69 | 255 | 12.0 | 23.0 | 0.00 | 0.17 | 0.00 | 63 | 1015.0 |
| 20260905142831 | 69 | 242 | 8.0 | 22.0 | 0.00 | 0.17 | 0.00 | 62 | 1015.2 |
| 20260905142421 | 68 | 306 | 12.0 | 21.0 | 0.00 | 0.17 | 0.00 | 61 | 1015.3 |
| 20260905142357 | 68 | 290 | 9.0 | 22.0 | 0.00 | 0.17 | 0.00 | 61 | 1015.2 |
| 20260905141332 | 68 | 238 | 9.0 | 22.0 | 0.00 | 0.17 | 0.00 | 61 | 1015.2 |
| 20260905140833 | 68 | 249 | 11.0 | 22.0 | 0.00 | 0.17 | 0.00 | 62 | 1015.2 |
| 20260905140333 | 68 | 277 | 12.0 | 23.0 | 0.00 | 0.17 | 0.00 | 60 | 1015.1 |
| 20260905135832 | 69 | 234 | 10.0 | 23.0 | 0.00 | 0.17 | 0.00 | 60 | 1015.2 |
| 20260905135334 | 69 | 238 | 12.0 | 24.0 | 0.00 | 0.17 | 0.00 | 60 | 1015.2 |
| 20260905134834 | 69 | 252 | 16.0 | 24.0 | 0.00 | 0.17 | 0.00 | 59 | 1015.1 |
| 20260905134326 | 70 | 289 | 11.0 | 27.0 | 0.00 | 0.17 | 0.00 | 60 | 1015.2 |
| 20260905133808 | 69 | 241 | 11.0 | 27.0 | 0.00 | 0.17 | 0.00 | 61 | 1015.0 |
| 20260905133305 | 70 | 273 | 13.0 | 22.0 | 0.00 | 0.17 | 0.00 | 61 | 1015.1 |
| 20260905132805 | 69 | 238 | 14.0 | 22.0 | 0.00 | 0.17 | 0.00 | 61 | 1015.1 |
| 20260905132305 | 69 | 241 | 16.0 | 23.0 | 0.00 | 0.17 | 0.00 | 64 | 1015.1 |
| 20260905131805 | 69 | 282 | 12.0 | 23.0 | 0.00 | 0.17 | 0.00 | 64 | 1015.2 |
| 20260905131303 | 68 | 283 | 8.0 | 16.0 | 0.00 | 0.17 | 0.00 | 66 | 1015.2 |
| 20260905131048 | 68 | 242 | 6.0 | 16.0 | 0.00 | 0.17 | 0.00 | 65 | 1015.3 |
| 20260905130303 | 68 | 284 | 10.0 | 18.0 | 0.00 | 0.17 | 0.00 | 64 | 1015.4 |
| 20260905130055 | 68 | 279 | 11.0 | 18.0 | 0.00 | 0.17 | 0.00 | 63 | 1015.2 |
| 20260905125306 | 68 | 232 | 9.0 | 18.0 | 0.00 | 0.17 | 0.00 | 63 | 1015.3 |
| 20260905124805 | 68 | 277 | 12.0 | 23.0 | 0.00 | 0.17 | 0.00 | 63 | 1015.3 |
| 20260905124557 | 69 | 251 | 13.0 | 23.0 | 0.00 | 0.17 | 0.00 | 61 | 1015.3 |
| 20260905124057 | 69 | 231 | 9.0 | 19.0 | 0.00 | 0.17 | 0.00 | 62 | 1015.3 |
| 20260905123543 | 69 | 277 | 13.0 | 20.0 | 0.00 | 0.17 | 0.00 | 62 | 1015.2 |
| 20260905122804 | 69 | 266 | 14.0 | 21.0 | 0.00 | 0.17 | 0.00 | 61 | 1015.2 |
| 20260905122557 | 69 | 273 | 13.0 | 21.0 | 0.00 | 0.17 | 0.00 | 59 | 1015.3 |
| 20260905121804 | 70 | 253 | 11.0 | 24.0 | 0.00 | 0.17 | 0.00 | 59 | 1015.2 |
| 20260905121557 | 70 | 252 | 14.0 | 24.0 | 0.00 | 0.17 | 0.00 | 58 | 1015.2 |
| 20260905121043 | 71 | 225 | 14.0 | 20.0 | 0.00 | 0.17 | 0.00 | 57 | 1015.2 |
| 20260905120539 | 71 | 259 | 9.0 | 20.0 | 0.00 | 0.17 | 0.00 | 59 | 1015.1 |
| 20260905115805 | 71 | 235 | 8.0 | 20.0 | 0.00 | 0.17 | 0.00 | 62 | 1015.1 |
| 20260905115306 | 70 | 268 | 6.0 | 18.0 | 0.00 | 0.17 | 0.00 | 62 | 1015.3 |
| 20260905115058 | 69 | 222 | 8.0 | 22.0 | 0.00 | 0.17 | 0.00 | 64 | 1015.2 |
| 20260905114305 | 68 | 206 | 10.0 | 22.0 | 0.00 | 0.17 | 0.00 | 65 | 1015.3 |
| 20260905113806 | 68 | 213 | 7.0 | 19.0 | 0.00 | 0.17 | 0.00 | 63 | 1015.5 |
| 20260905113305 | 69 | 265 | 8.0 | 19.0 | 0.00 | 0.17 | 0.00 | 62 | 1015.5 |
| 20260905112806 | 69 | 301 | 10.0 | 23.0 | 0.00 | 0.17 | 0.00 | 60 | 1015.5 |
| 20260905112306 | 71 | 210 | 12.0 | 23.0 | 0.00 | 0.17 | 0.00 | 60 | 1015.5 |
| 20260905111806 | 71 | 262 | 10.0 | 20.0 | 0.00 | 0.17 | 0.00 | 63 | 1015.5 |
| 20260905111305 | 70 | 292 | 11.0 | 26.0 | 0.00 | 0.17 | 0.00 | 61 | 1015.5 |
| 20260905111053 | 70 | 208 | 15.0 | 26.0 | 0.00 | 0.17 | 0.00 | 61 | 1015.4 |
| 20260905110311 | 71 | 253 | 13.0 | 23.0 | 0.00 | 0.17 | 0.00 | 61 | 1015.5 |
| 20260905105806 | 71 | 279 | 14.0 | 23.0 | 0.00 | 0.17 | 0.00 | 60 | 1015.5 |
| 20260905105306 | 71 | 220 | 9.0 | 15.0 | 0.00 | 0.17 | 0.00 | 62 | 1015.6 |
| 20260905104807 | 71 | 283 | 7.0 | 20.0 | 0.00 | 0.17 | 0.00 | 62 | 1015.6 |
| 20260905104548 | 71 | 249 | 9.0 | 20.0 | 0.00 | 0.17 | 0.00 | 61 | 1015.7 |
| 20260905103806 | 71 | 203 | 14.0 | 20.0 | 0.00 | 0.17 | 0.00 | 62 | 1015.7 |
| 20260905103306 | 71 | 265 | 11.0 | 19.0 | 0.00 | 0.17 | 0.00 | 61 | 1015.6 |
| 20260905102805 | 71 | 283 | 10.0 | 16.0 | 0.00 | 0.17 | 0.00 | 65 | 1015.6 |
| 20260905102306 | 70 | 259 | 11.0 | 16.0 | 0.00 | 0.17 | 0.00 | 64 | 1015.5 |
| 20260905101806 | 69 | 268 | 7.0 | 19.0 | 0.00 | 0.17 | 0.00 | 64 | 1015.7 |
| 20260905101306 | 67 | 256 | 13.0 | 21.0 | 0.00 | 0.17 | 0.00 | 68 | 1015.6 |
| 20260905100806 | 67 | 292 | 10.0 | 21.0 | 0.00 | 0.17 | 0.00 | 66 | 1015.7 |
| 20260905100305 | 67 | 289 | 9.0 | 26.0 | 0.00 | 0.17 | 0.00 | 65 | 1015.6 |
| 20260905100055 | 68 | 277 | 16.0 | 26.0 | 0.00 | 0.17 | 0.00 | 66 | 1015.7 |
| 20260905095306 | 68 | 239 | 16.0 | 28.0 | 0.00 | 0.17 | 0.00 | 66 | 1015.5 |
| 20260905095045 | 67 | 270 | 10.0 | 28.0 | 0.00 | 0.17 | 0.00 | 68 | 1015.4 |
| 20260905094305 | 66 | 222 | 9.0 | 22.0 | 0.00 | 0.17 | 0.00 | 66 | 1015.5 |
| 20260905093806 | 66 | 259 | 11.0 | 27.0 | 0.00 | 0.17 | 0.00 | 66 | 1015.5 |
| 20260905093305 | 67 | 232 | 14.0 | 27.0 | 0.00 | 0.17 | 0.00 | 67 | 1015.6 |
| 20260905092806 | 67 | 207 | 11.0 | 28.0 | 0.00 | 0.17 | 0.00 | 66 | 1015.5 |
| 20260905092306 | 68 | 262 | 18.0 | 28.0 | 0.00 | 0.17 | 0.00 | 65 | 1015.5 |
| 20260905092053 | 68 | 225 | 9.0 | 20.0 | 0.00 | 0.17 | 0.00 | 65 | 1015.4 |
| 20260905091303 | 69 | 241 | 11.0 | 17.0 | 0.00 | 0.17 | 0.00 | 67 | 1015.5 |
| 20260905090804 | 69 | 239 | 13.0 | 19.0 | 0.00 | 0.17 | 0.00 | 66 | 1015.5 |
| 20260905090304 | 68 | 251 | 11.0 | 21.0 | 0.00 | 0.17 | 0.00 | 66 | 1015.4 |
| 20260905085804 | 68 | 256 | 13.0 | 21.0 | 0.00 | 0.17 | 0.00 | 67 | 1015.3 |
| 20260905085305 | 68 | 272 | 12.0 | 21.0 | 0.00 | 0.17 | 0.00 | 67 | 1015.3 |
| 20260905084807 | 69 | 232 | 14.0 | 21.0 | 0.00 | 0.17 | 0.00 | 67 | 1015.3 |
| 20260905084557 | 69 | 251 | 12.0 | 19.0 | 0.00 | 0.17 | 0.00 | 67 | 1015.2 |
| 20260905083806 | 69 | 246 | 10.0 | 19.0 | 0.00 | 0.17 | 0.00 | 64 | 1015.3 |
| 20260905083305 | 68 | 255 | 9.0 | 23.0 | 0.00 | 0.17 | 0.00 | 65 | 1015.2 |
| 20260905082806 | 67 | 266 | 12.0 | 23.0 | 0.00 | 0.17 | 0.00 | 64 | 1015.2 |
| 20260905082548 | 67 | 239 | 14.0 | 23.0 | 0.00 | 0.17 | 0.00 | 65 | 1015.1 |
| 20260905081804 | 67 | 224 | 14.0 | 23.0 | 0.00 | 0.17 | 0.00 | 66 | 1015.2 |
| 20260905081304 | 67 | 275 | 9.0 | 19.0 | 0.00 | 0.17 | 0.00 | 67 | 1015.1 |
| 20260905080803 | 66 | 241 | 13.0 | 21.0 | 0.00 | 0.17 | 0.00 | 66 | 1015.1 |
| 20260905080303 | 66 | 252 | 12.0 | 21.0 | 0.00 | 0.17 | 0.00 | 68 | 1015.1 |
| 20260905080052 | 66 | 244 | 13.0 | 23.0 | 0.00 | 0.17 | 0.00 | 68 | 1015.0 |
| 20260905075306 | 66 | 277 | 17.0 | 23.0 | 0.00 | 0.17 | 0.00 | 70 | 1014.9 |
| 20260905075040 | 65 | 269 | 8.0 | 22.0 | 0.00 | 0.17 | 0.00 | 71 | 1014.9 |
| 20260905074306 | 65 | 268 | 17.0 | 22.0 | 0.00 | 0.17 | 0.00 | 72 | 1014.8 |
| 20260905074051 | 65 | 263 | 10.0 | 18.0 | 0.00 | 0.17 | 0.00 | 72 | 1014.8 |
| 20260905073552 | 65 | 276 | 13.0 | 18.0 | 0.00 | 0.17 | 0.00 | 71 | 1014.8 |
| 20260905073055 | 65 | 279 | 10.0 | 21.0 | 0.00 | 0.17 | 0.00 | 72 | 1014.8 |
| 20260905072553 | 65 | 280 | 8.0 | 21.0 | 0.00 | 0.17 | 0.00 | 73 | 1014.7 |
| 20260905071806 | 64 | 270 | 13.0 | 24.0 | 0.00 | 0.17 | 0.00 | 73 | 1014.7 |
| 20260905071305 | 64 | 289 | 9.0 | 24.0 | 0.00 | 0.17 | 0.00 | 73 | 1014.6 |
| 20260905071049 | 64 | 244 | 12.0 | 22.0 | 0.00 | 0.17 | 0.00 | 73 | 1014.5 |
| 20260905070305 | 64 | 266 | 11.0 | 22.0 | 0.00 | 0.17 | 0.00 | 76 | 1014.6 |
| 20260905065804 | 64 | 244 | 12.0 | 19.0 | 0.00 | 0.17 | 0.00 | 76 | 1014.4 |
| 20260905065554 | 63 | 259 | 9.0 | 19.0 | 0.00 | 0.17 | 0.00 | 76 | 1014.5 |
| 20260905064851 | 63 | 259 | 11.0 | 20.0 | 0.00 | 0.17 | 0.00 | 77 | 1014.4 |
| 20260905064835 | 63 | 277 | 9.0 | 19.0 | 0.00 | 0.17 | 0.00 | 76 | 1014.4 |
| 20260905064051 | 62 | 246 | 11.0 | 20.0 | 0.00 | 0.17 | 0.00 | 77 | 1014.4 |
| 20260905063305 | 62 | 238 | 10.0 | 17.0 | 0.00 | 0.17 | 0.00 | 78 | 1014.5 |
| 20260905062805 | 62 | 234 | 9.0 | 17.0 | 0.00 | 0.17 | 0.00 | 78 | 1014.5 |
| 20260905062306 | 62 | 242 | 8.0 | 15.0 | 0.00 | 0.17 | 0.00 | 79 | 1014.4 |
| 20260905061804 | 62 | 272 | 9.0 | 14.0 | 0.00 | 0.17 | 0.00 | 80 | 1014.5 |
| 20260905061305 | 61 | 251 | 9.0 | 14.0 | 0.00 | 0.17 | 0.00 | 80 | 1014.4 |
| 20260905061050 | 61 | 255 | 6.0 | 18.0 | 0.00 | 0.17 | 0.00 | 81 | 1014.5 |
| 20260905060247 | 60 | 265 | 11.0 | 18.0 | 0.00 | 0.17 | 0.00 | 83 | 1014.4 |
| 20260905060039 | 60 | 256 | 6.0 | 15.0 | 0.00 | 0.17 | 0.00 | 83 | 1014.4 |
| 20260905055245 | 60 | 231 | 6.0 | 19.0 | 0.00 | 0.17 | 0.00 | 84 | 1014.3 |
| 20260905054747 | 59 | 239 | 9.0 | 19.0 | 0.00 | 0.17 | 0.00 | 84 | 1014.2 |
| 20260905054247 | 59 | 265 | 8.0 | 13.0 | 0.00 | 0.17 | 0.00 | 85 | 1014.2 |
| 20260905053746 | 59 | 290 | 6.0 | 13.0 | 0.00 | 0.17 | 0.00 | 85 | 1014.1 |
| 20260905053244 | 58 | 246 | 7.0 | 13.0 | 0.00 | 0.17 | 0.00 | 86 | 1014.0 |
| 20260905052748 | 58 | 266 | 9.0 | 13.0 | 0.00 | 0.17 | 0.00 | 86 | 1014.0 |
| 20260905052245 | 58 | 246 | 8.0 | 14.0 | 0.00 | 0.17 | 0.00 | 86 | 1014.0 |
| 20260905051746 | 58 | 256 | 9.0 | 14.0 | 0.00 | 0.17 | 0.00 | 86 | 1013.9 |
| 20260905051246 | 58 | 276 | 6.0 | 15.0 | 0.00 | 0.17 | 0.00 | 86 | 1013.9 |
| 20260905050746 | 58 | 256 | 9.0 | 15.0 | 0.00 | 0.17 | 0.00 | 86 | 1013.7 |
| 20260905050244 | 58 | 255 | 10.0 | 14.0 | 0.00 | 0.17 | 0.00 | 87 | 1013.6 |
| 20260905045748 | 58 | 252 | 6.0 | 16.0 | 0.00 | 0.17 | 0.00 | 87 | 1013.6 |
| 20260905045245 | 58 | 222 | 6.0 | 16.0 | 0.00 | 0.17 | 0.00 | 87 | 1013.6 |
| 20260905044745 | 58 | 251 | 7.0 | 13.0 | 0.00 | 0.17 | 0.00 | 87 | 1013.5 |
| 20260905044246 | 58 | 232 | 6.0 | 11.0 | 0.00 | 0.17 | 0.00 | 87 | 1013.4 |
| 20260905044032 | 58 | 238 | 5.0 | 13.0 | 0.00 | 0.17 | 0.00 | 87 | 1013.4 |
| 20260905043244 | 58 | 258 | 9.0 | 13.0 | 0.00 | 0.17 | 0.00 | 87 | 1013.4 |
| 20260905042747 | 58 | 246 | 7.0 | 15.0 | 0.00 | 0.17 | 0.00 | 87 | 1013.2 |
| 20260905042244 | 58 | 276 | 7.0 | 15.0 | 0.00 | 0.17 | 0.00 | 87 | 1013.3 |
| 20260905041745 | 58 | 260 | 6.0 | 15.0 | 0.00 | 0.17 | 0.00 | 87 | 1013.1 |
| 20260905041543 | 58 | 255 | 8.0 | 13.0 | 0.00 | 0.17 | 0.00 | 87 | 1013.0 |
| 20260905040745 | 58 | 269 | 6.0 | 14.0 | 0.00 | 0.17 | 0.00 | 87 | 1013.0 |
| 20260905040243 | 58 | 252 | 11.0 | 16.0 | 0.00 | 0.17 | 0.00 | 87 | 1013.0 |
| 20260905040027 | 58 | 277 | 9.0 | 16.0 | 0.00 | 0.17 | 0.00 | 87 | 1012.9 |
| 20260905035243 | 58 | 232 | 8.0 | 13.0 | 0.00 | 0.17 | 0.00 | 87 | 1012.9 |
| 20260905034745 | 58 | 253 | 8.0 | 13.0 | 0.00 | 0.17 | 0.00 | 86 | 1012.9 |
| 20260905034245 | 59 | 287 | 8.0 | 16.0 | 0.00 | 0.17 | 0.00 | 87 | 1012.8 |
| 20260905033745 | 59 | 289 | 8.0 | 16.0 | 0.00 | 0.17 | 0.00 | 87 | 1012.8 |
| 20260905033242 | 59 | 277 | 7.0 | 12.0 | 0.00 | 0.17 | 0.00 | 87 | 1012.6 |
| 20260905033037 | 59 | 286 | 6.0 | 17.0 | 0.00 | 0.17 | 0.00 | 87 | 1012.6 |
| 20260905032525 | 59 | 265 | 9.0 | 17.0 | 0.00 | 0.17 | 0.00 | 87 | 1012.6 |
| 20260905031745 | 59 | 245 | 8.0 | 17.0 | 0.00 | 0.17 | 0.00 | 87 | 1012.6 |
| 20260905031244 | 59 | 259 | 11.0 | 17.0 | 0.00 | 0.17 | 0.00 | 87 | 1012.4 |
| 20260905030744 | 59 | 266 | 12.0 | 16.0 | 0.00 | 0.17 | 0.00 | 87 | 1012.3 |
| 20260905030244 | 59 | 283 | 7.0 | 16.0 | 0.00 | 0.17 | 0.00 | 87 | 1012.4 |
| 20260905025744 | 59 | 258 | 9.0 | 17.0 | 0.00 | 0.17 | 0.00 | 87 | 1012.2 |
| 20260905025540 | 59 | 282 | 8.0 | 17.0 | 0.00 | 0.17 | 0.00 | 87 | 1012.2 |
| 20260905024744 | 59 | 296 | 9.0 | 17.0 | 0.00 | 0.17 | 0.00 | 88 | 1012.2 |
| 20260905024243 | 59 | 286 | 10.0 | 17.0 | 0.00 | 0.17 | 0.00 | 88 | 1012.2 |
| 20260905023743 | 59 | 227 | 6.0 | 14.0 | 0.00 | 0.17 | 0.00 | 88 | 1012.1 |
| 20260905023241 | 59 | 268 | 7.0 | 14.0 | 0.00 | 0.17 | 0.00 | 88 | 1012.0 |
| 20260905022744 | 59 | 280 | 4.0 | 11.0 | 0.00 | 0.17 | 0.00 | 88 | 1012.0 |
| 20260905022241 | 59 | 259 | 5.0 | 14.0 | 0.00 | 0.17 | 0.00 | 88 | 1012.0 |
| 20260905021743 | 59 | 232 | 10.0 | 14.0 | 0.00 | 0.17 | 0.00 | 88 | 1011.9 |
| 20260905021242 | 59 | 255 | 8.0 | 14.0 | 0.00 | 0.17 | 0.00 | 88 | 1011.9 |
| 20260905020743 | 59 | 268 | 4.0 | 14.0 | 0.00 | 0.17 | 0.00 | 88 | 1011.8 |
| 20260905020241 | 59 | 289 | 7.0 | 14.0 | 0.00 | 0.17 | 0.00 | 88 | 1011.7 |
| 20260905015743 | 59 | 244 | 8.0 | 14.0 | 0.00 | 0.17 | 0.00 | 88 | 1011.7 |
| 20260905015240 | 59 | 277 | 6.0 | 14.0 | 0.00 | 0.17 | 0.00 | 88 | 1011.7 |
| 20260905014741 | 59 | 255 | 8.0 | 14.0 | 0.00 | 0.17 | 0.00 | 88 | 1011.6 |
| 20260905014242 | 59 | 248 | 7.0 | 12.0 | 0.00 | 0.17 | 0.00 | 88 | 1011.6 |
| 20260905013739 | 59 | 284 | 8.0 | 12.0 | 0.00 | 0.17 | 0.00 | 89 | 1011.5 |
| 20260905013239 | 60 | 277 | 4.0 | 14.0 | 0.00 | 0.17 | 0.00 | 89 | 1011.4 |
| 20260905012736 | 60 | 258 | 10.0 | 14.0 | 0.00 | 0.17 | 0.00 | 89 | 1011.6 |
| 20260905012232 | 60 | 265 | 9.0 | 16.0 | 0.00 | 0.17 | 0.00 | 89 | 1011.3 |
| 20260905011735 | 60 | 286 | 9.0 | 16.0 | 0.00 | 0.17 | 0.00 | 89 | 1011.4 |
| 20260905011234 | 60 | 277 | 9.0 | 16.0 | 0.00 | 0.17 | 0.00 | 89 | 1011.0 |
| 20260905010735 | 60 | 268 | 7.0 | 16.0 | 0.00 | 0.17 | 0.00 | 89 | 1011.3 |
| 20260905010232 | 60 | 339 | 4.0 | 16.0 | 0.00 | 0.17 | 0.00 | 89 | 1011.2 |
| 20260905010029 | 60 | 276 | 7.0 | 15.0 | 0.00 | 0.17 | 0.00 | 89 | 1011.3 |
| 20260905005529 | 60 | 297 | 6.0 | 15.0 | 0.00 | 0.17 | 0.00 | 89 | 1011.4 |
| 20260905004735 | 60 | 273 | 9.0 | 14.0 | 0.00 | 0.17 | 0.00 | 89 | 1011.0 |
| 20260905004235 | 60 | 273 | 7.0 | 16.0 | 0.00 | 0.17 | 0.00 | 89 | 1011.5 |
| 20260905003733 | 60 | 252 | 12.0 | 16.0 | 0.00 | 0.17 | 0.00 | 89 | 1011.1 |
| 20260905003232 | 60 | 246 | 9.0 | 16.0 | 0.00 | 0.17 | 0.00 | 89 | 1011.0 |
| 20260905002735 | 60 | 238 | 10.0 | 17.0 | 0.00 | 0.17 | 0.00 | 90 | 1011.0 |
| 20260905002233 | 60 | 210 | 7.0 | 17.0 | 0.00 | 0.17 | 0.00 | 90 | 1011.1 |
| 20260905001732 | 60 | 286 | 8.0 | 14.0 | 0.00 | 0.17 | 0.00 | 90 | 1011.2 |
| 20260905001234 | 60 | 255 | 10.0 | 20.0 | 0.00 | 0.17 | 0.00 | 90 | 1011.0 |
| 20260905000733 | 60 | 241 | 7.0 | 20.0 | 0.00 | 0.17 | 0.00 | 90 | 1011.0 |
| 20260905000233 | 60 | 248 | 9.0 | 17.0 | 0.00 | 0.17 | 0.00 | 90 | 1011.0 |
| 20260904235735 | 60 | 255 | 10.0 | 17.0 | 0.00 | 0.17 | 0.00 | 90 | 1011.0 |
| 20260904235232 | 60 | 262 | 9.0 | 14.0 | 0.00 | 0.17 | 0.00 | 90 | 1010.9 |
| 20260904234732 | 61 | 270 | 9.0 | 15.0 | 0.00 | 0.17 | 0.00 | 90 | 1010.9 |
| 20260904234610 | 61 | 258 | 10.0 | 17.0 | 0.00 | 0.17 | 0.00 | 90 | 1010.8 |
| 20260904234603 | 61 | 253 | 8.0 | 17.0 | 0.00 | 0.17 | 0.00 | 90 | 1010.7 |
| 20260904233234 | 61 | 268 | 6.0 | 16.0 | 0.00 | 0.17 | 0.00 | 90 | 1010.7 |
| 20260904232736 | 61 | 260 | 8.0 | 19.0 | 0.00 | 0.17 | 0.00 | 90 | 1010.5 |
| 20260904232233 | 61 | 268 | 10.0 | 19.0 | 0.00 | 0.17 | 0.00 | 90 | 1010.8 |
| 20260904231709 | 61 | 262 | 9.0 | 13.0 | 0.00 | 0.17 | 0.00 | 90 | 1010.9 |
| 20260904231206 | 61 | 270 | 9.0 | 15.0 | 0.00 | 0.17 | 0.00 | 90 | 1010.9 |
| 20260904230703 | 61 | 289 | 10.0 | 15.0 | 0.00 | 0.17 | 0.00 | 90 | 1010.5 |
| 20260904230205 | 61 | 218 | 8.0 | 16.0 | 0.00 | 0.17 | 0.00 | 89 | 1010.7 |
| 20260904225707 | 61 | 262 | 7.0 | 16.0 | 0.00 | 0.17 | 0.00 | 89 | 1010.4 |
| 20260904225204 | 61 | 242 | 7.0 | 15.0 | 0.01 | 0.17 | 0.00 | 89 | 1010.7 |
| 20260904224706 | 61 | 235 | 11.0 | 17.0 | 0.01 | 0.17 | 0.00 | 89 | 1010.5 |
| 20260904224206 | 61 | 244 | 8.0 | 17.0 | 0.02 | 0.17 | 0.00 | 89 | 1010.5 |
| 20260904223939 | 61 | 263 | 9.0 | 16.0 | 0.02 | 0.17 | 0.00 | 89 | 1010.3 |
| 20260904223203 | 61 | 232 | 6.0 | 15.0 | 0.02 | 0.17 | 0.00 | 89 | 1010.2 |
| 20260904222707 | 61 | 217 | 9.0 | 15.0 | 0.02 | 0.17 | 0.00 | 89 | 1010.3 |
| 20260904222205 | 61 | 234 | 5.0 | 16.0 | 0.02 | 0.17 | 0.00 | 89 | 1010.0 |
| 20260904221704 | 61 | 246 | 7.0 | 16.0 | 0.02 | 0.17 | 0.00 | 89 | 1010.2 |
| 20260904221210 | 61 | 232 | 6.0 | 15.0 | 0.03 | 0.17 | 0.00 | 89 | 1010.2 |
| 20260904220702 | 61 | 258 | 10.0 | 15.0 | 0.03 | 0.17 | 0.00 | 89 | 1009.6 |
| 20260904220204 | 61 | 238 | 6.0 | 16.0 | 0.04 | 0.17 | 0.00 | 89 | 1009.4 |
| 20260904215705 | 61 | 256 | 6.0 | 18.0 | 0.05 | 0.13 | 0.17 | 89 | 1009.2 |
| 20260904215203 | 61 | 262 | 11.0 | 18.0 | 0.04 | 0.13 | 0.17 | 89 | 1009.9 |
| 20260904214702 | 61 | 255 | 10.0 | 17.0 | 0.05 | 0.13 | 0.17 | 89 | 1009.6 |
| 20260904214207 | 61 | 289 | 11.0 | 14.0 | 0.05 | 0.13 | 0.16 | 89 | 1010.0 |
| 20260904213704 | 61 | 255 | 9.0 | 18.0 | 0.07 | 0.13 | 0.16 | 89 | 1009.8 |
| 20260904213446 | 61 | 232 | 13.0 | 18.0 | 0.07 | 0.13 | 0.16 | 89 | 1009.7 |
| 20260904212706 | 61 | 258 | 7.0 | 13.0 | 0.07 | 0.13 | 0.16 | 88 | 1009.5 |
| 20260904212202 | 61 | 283 | 8.0 | 15.0 | 0.07 | 0.13 | 0.15 | 88 | 1009.3 |
| 20260904211702 | 60 | 279 | 8.0 | 18.0 | 0.07 | 0.13 | 0.15 | 88 | 1009.1 |
| 20260904211204 | 60 | 270 | 12.0 | 18.0 | 0.07 | 0.13 | 0.14 | 88 | 1009.1 |
| 20260904210702 | 60 | 256 | 9.0 | 16.0 | 0.07 | 0.13 | 0.14 | 88 | 1009.1 |
| 20260904210202 | 60 | 251 | 7.0 | 21.0 | 0.07 | 0.13 | 0.13 | 88 | 1009.3 |
| 20260904205704 | 61 | 259 | 12.0 | 21.0 | 0.07 | 0.06 | 0.13 | 88 | 1009.4 |
| 20260904205151 | 61 | 265 | 9.0 | 14.0 | 0.08 | 0.06 | 0.13 | 88 | 1009.4 |